Temp
53 46 44 53 51 51 49 46 45 54 58 53 54 52 57 60 55 55 57 60 63 64 64 60 60 61 58 54 53 52 51 51 51 48 44 42 44 40 40 40 42 42 41 41
47 44 55 55 53 51 49 47 47 55 56 51 51 52 57 54 57 60 60 60 62 64 58 59 54 53 54 52 53 52 52 50 51 50 48 43 44 38 40 40 41 41 41 40
50 52 56 54 51 49 51 47 49 48 52 48 45 43 49 53 55 59 62 61 63 63 56 54 50 53 53 52 51 52 52 51 51 49 45 40 40 38 38 38 39 39 39 38
48 56 55 49 49 52 49 52 52 48 41 40 43 38 45 50 51 53 58 59 60 54 54 53 51 47 52 52 52 52 51 50 49 47 46 42 44 42 43 44 41 38 38 37
49 48 46 48 52 52 50 48 46 42 38 35 39 35 42 50 48 54 60 60 61 57 54 52 52 55 52 51 51 51 49 49 49 47 47 44 43 43 37 37 37 36 35 36
47 48 50 50 47 50 48 43 42 39 36 32 38 40 44 44 50 52 58 59 62 61 55 54 53 50 49 48 49 49 48 48 48 47 46 44 43 38 36 36 37 36 35 34
43 47 47 50 44 44 43 39 29 27 24 32 43 36 49 50 53 56 59 59 61 54 52 49 48 48 47 45 47 48 47 46 47 46 44 44 43 41 39 38 38 35 34 32
38 42 45 48 50 44 39 41 29 23 31 39 36 31 42 54 57 57 58 62 55 51 50 49 48 48 47 47 45 47 45 46 45 45 43 43 41 42 41 39 38 38 37 35
38 42 44 44 45 49 40 37 45 32 17 24 40 43 49 51 53 53 55 49 52 50 48 48 46 46 46 45 46 47 46 47 45 44 43 41 41 41 40 38 37 36 35 34
49 40 47 42 43 43 41 44 33 31 22 18 38 34 45 51 57 59 50 50 50 49 49 47 47 47 46 47 47 46 47 46 45 43 43 41 40 41 40 36 35 33 33 32
47 45 44 41 38 39 38 37 40 39 31 33 32 40 48 47 51 52 49 50 50 51 49 49 48 48 48 47 45 45 44 43 42 41 41 40 38 38 36 36 34 33 32 30
43 40 32 41 45 45 44 43 44 37 33 30 36 40 60 52 52 51 52 52 48 51 52 50 48 48 44 45 44 43 43 42 42 41 39 38 36 34 34 34 32 30 30 29
42 34 28 33 43 39 41 42 45 44 37 33 29 34 57 57 58 59 51 51 53 55 54 50 48 46 47 46 45 45 44 42 41 39 37 36 34 33 33 31 29 30 28 27
45 33 32 31 40 44 37 38 41 43 35 37 36 39 48 52 54 58 59 61 61 58 54 53 54 49 46 46 46 45 43 42 39 36 36 35 34 33 32 30 29 29 28 25
41 31 33 36 39 41 39 39 39 37 39 34 38 40 46 51 53 56 59 60 59 52 52 53 53 49 46 46 45 44 44 40 38 36 36 34 34 33 29 29 28 26 25 24
42 34 35 32 35 34 32 37 38 38 39 39 41 42 53 56 57 56 57 58 56 57 59 55 50 48 46 44 46 44 43 39 37 36 35 34 30 28 28 27 25 24 24 22
38 33 33 30 34 33 28 34 37 38 42 41 35 44 53 52 53 54 56 57 56 57 57 53 49 47 43 43 43 41 41 36 35 34 33 30 28 27 27 26 24 23 22 21
36 33 32 30 32 23 35 42 41 39 43 46 45 48 51 52 54 56 58 55 55 56 55 47 43 44 43 42 38 40 33 34 34 32 30 28 27 26 25 23 23 21 20 19
40 36 31 28 28 34 38 39 40 37 37 46 43 47 49 50 51 50 53 49 51 51 53 50 47 45 42 41 38 34 31 32 31 29 28 27 26 24 23 21 21 20 19 18
37 39 34 32 25 23 39 40 45 47 32 31 32 32 33 36 31 35 41 41 40 42 44 42 42 41 39 33 31 31 30 29 29 29 28 26 26 23 21 21 20 19 18 17
29 33 29 30 27 31 31 29 36 28 22 30 32 31 30 30 33 36 38 39 41 40 38 38 37 33 30 27 27 28 27 28 28 25 25 23 23 22 22 20 19 17 17 18
23 20 21 23 24 22 30 30 20 26 32 30 31 32 31 33 35 36 38 39 40 39 39 38 32 32 26 26 26 25 25 24 22 23 21 21 21 20 18 17 15 16 16 15
18 21 18 20 20 28 34 34 36 35 30 31 31 31 32 32 34 36 37 37 38 38 37 37 30 29 23 24 27 27 24 22 20 20 19 18 17 16 15 14 13 13 14 13
24 30 23 21 28 30 33 37 37 34 32 32 29 27 30 30 31 31 33 34 35 35 36 37 36 34 34 27 26 29 23 22 18 16 15 14 14 12 13 15 14 14 13 14
22 26 19 21 27 30 33 34 31 31 29 28 27 28 28 27 26 27 27 29 32 34 35 35 34 34 34 33 27 26 23 22 20 18 15 14 14 12 12 14 14 15 17 18
27 24 21 19 30 24 27 27 29 23 22 23 23 22 23 23 22 23 24 26 27 28 30 33 34 31 34 35 28 26 23 21 19 16 14 14 13 13 12 12 14 21 20 23
MSLP
1014.21 1014.64 1014.31 1012.87 1013.43 1013.10 1013.31 1013.16 1012.90 1011.34 1011.19 1011.62 1011.00 1010.46 1009.29 1008.77 1009.05 1008.87 1008.32 1007.67 1006.95 1006.35 1005.74 1006.13 1006.57 1007.22 1008.30 1009.53 1010.60 1011.60 1012.69 1013.77 1014.75 1015.94 1017.04 1018.10 1018.48 1018.84 1019.14 1019.22 1019.44 1019.86 1020.37 1020.79
1014.27 1013.58 1012.48 1012.67 1013.07 1013.24 1013.14 1012.76 1012.08 1010.87 1010.37 1010.92 1010.41 1009.38 1008.71 1008.35 1007.54 1007.13 1007.01 1006.56 1005.78 1005.49 1005.43 1005.47 1006.03 1006.97 1007.64 1008.60 1009.77 1011.02 1012.04 1013.12 1014.01 1014.94 1015.86 1016.71 1017.48 1018.33 1018.66 1019.02 1019.41 1019.71 1020.11 1020.42
1012.54 1011.83 1012.13 1012.56 1012.73 1013.15 1012.09 1012.37 1011.34 1010.99 1010.76 1010.29 1009.89 1008.34 1007.92 1006.89 1006.32 1005.99 1005.35 1004.92 1004.65 1004.58 1004.93 1005.34 1006.16 1006.38 1007.13 1008.16 1009.06 1010.06 1011.16 1012.23 1013.13 1014.09 1015.42 1016.55 1017.65 1018.28 1018.69 1018.71 1018.99 1019.14 1019.51 1020.01
1012.40 1011.41 1011.81 1012.22 1012.20 1012.10 1010.51 1011.00 1011.01 1011.41 1011.84 1011.15 1010.32 1006.93 1006.47 1005.98 1005.71 1005.06 1004.42 1003.75 1003.35 1003.60 1004.10 1004.57 1005.47 1006.29 1006.50 1007.27 1008.50 1009.49 1010.47 1011.47 1012.55 1013.58 1014.61 1015.24 1015.61 1016.44 1016.58 1016.91 1017.92 1018.73 1019.35 1019.83
1010.83 1010.79 1010.95 1011.40 1010.77 1011.56 1009.93 1010.49 1011.04 1011.45 1011.86 1011.50 1010.40 1010.02 1005.58 1005.14 1005.00 1004.23 1003.35 1002.75 1002.39 1002.39 1003.17 1003.96 1004.65 1005.05 1006.02 1007.02 1007.89 1008.98 1010.07 1011.05 1011.87 1012.63 1013.28 1014.28 1015.14 1015.81 1016.32 1017.18 1017.82 1018.43 1019.10 1019.48
1011.19 1010.85 1010.72 1010.55 1010.92 1010.94 1011.11 1011.38 1011.53 1011.91 1012.40 1010.77 1010.59 1009.49 1003.21 1004.27 1003.38 1002.78 1002.10 1001.86 1001.68 1001.59 1002.54 1003.42 1004.19 1005.12 1006.43 1007.15 1007.91 1008.68 1009.43 1010.05 1010.59 1011.59 1012.48 1013.24 1014.06 1015.00 1015.83 1016.64 1017.37 1017.82 1018.36 1018.84
1011.15 1010.21 1009.93 1010.13 1011.15 1011.75 1011.82 1012.36 1012.99 1012.90 1012.90 1009.25 1007.94 1007.49 1003.16 1003.09 1002.23 1001.66 1001.29 1000.81 1000.48 1001.28 1002.56 1003.30 1004.34 1005.41 1006.19 1006.87 1007.36 1008.06 1008.86 1009.58 1010.33 1010.87 1011.51 1012.04 1012.91 1013.91 1014.55 1014.92 1015.87 1016.94 1017.64 1018.18
1011.79 1009.72 1009.95 1009.35 1009.50 1009.46 1010.97 1012.11 1013.08 1012.47 1010.93 1008.45 1007.61 1004.66 1002.54 1001.37 1000.83 1000.37 1000.00 999.75 1000.24 1001.25 1002.17 1002.99 1003.64 1004.64 1005.53 1006.35 1006.99 1007.51 1008.21 1008.90 1009.46 1010.04 1010.76 1011.48 1012.14 1012.80 1013.41 1014.02 1014.49 1015.34 1015.99 1016.71
1010.52 1008.92 1008.73 1008.79 1009.19 1008.82 1010.12 1011.20 1010.33 1011.20 1010.84 1009.75 1005.36 1002.89 1001.38 1000.96 1000.56 1000.20 999.80 1000.03 1000.74 1001.08 1001.85 1002.75 1003.50 1004.17 1004.77 1005.51 1006.02 1006.28 1007.08 1007.63 1008.23 1008.87 1009.94 1010.65 1011.54 1012.00 1012.39 1013.09 1013.89 1014.59 1015.09 1015.88
1008.92 1008.82 1008.06 1008.75 1009.48 1009.33 1008.95 1009.15 1010.51 1010.78 1010.63 1008.74 1004.68 1002.99 1000.83 1001.27 1000.26 999.51 1000.01 1000.05 1000.56 1001.15 1001.86 1002.72 1003.27 1003.56 1003.99 1004.54 1005.25 1006.02 1006.40 1006.72 1007.34 1008.06 1008.54 1009.29 1009.92 1010.83 1011.85 1012.86 1013.25 1014.05 1015.09 1015.64
1009.82 1009.12 1007.74 1009.16 1008.89 1008.78 1009.37 1009.21 1009.37 1009.23 1008.79 1006.94 1005.23 1001.76 1000.15 1000.29 1000.24 1000.12 999.91 1000.05 1000.50 1001.24 1001.67 1001.95 1002.32 1002.69 1003.01 1003.71 1004.49 1004.91 1005.59 1006.19 1006.79 1007.38 1007.75 1008.38 1009.17 1009.83 1010.89 1011.95 1012.91 1013.49 1014.48 1015.31
1011.43 1010.91 1009.65 1008.80 1008.06 1007.74 1007.72 1007.66 1008.26 1008.20 1007.46 1006.73 1005.06 1002.39 999.94 1000.38 1000.40 1000.46 999.30 1000.15 1000.35 1000.80 1001.05 1001.39 1001.68 1002.07 1002.39 1002.99 1003.63 1003.86 1004.55 1005.17 1005.19 1006.17 1007.35 1008.01 1008.95 1009.73 1010.51 1011.30 1012.39 1013.24 1014.14 1015.14
1011.36 1010.99 1010.83 1009.43 1008.39 1007.71 1007.21 1006.56 1006.99 1007.01 1007.11 1006.42 1005.70 1003.28 999.73 1000.36 999.96 999.27 999.76 1000.19 1000.14 1000.03 1000.07 1000.43 1000.80 1001.02 1001.25 1001.67 1002.29 1002.57 1003.15 1003.62 1004.35 1005.22 1006.21 1007.44 1008.16 1008.97 1009.89 1010.69 1011.72 1012.75 1013.74 1015.06
1010.42 1010.06 1009.63 1008.45 1006.95 1006.57 1007.09 1006.56 1006.20 1006.35 1006.27 1005.04 1004.06 1001.71 1000.98 998.73 997.91 997.66 998.35 997.84 998.36 998.67 999.00 999.28 999.55 999.74 1000.34 1000.62 1000.91 1001.53 1001.80 1002.42 1003.25 1004.09 1005.06 1005.99 1007.04 1007.76 1009.04 1009.97 1010.83 1011.97 1013.07 1014.24
1009.65 1008.99 1008.84 1007.42 1006.65 1006.96 1006.68 1006.22 1005.69 1005.68 1004.63 1004.52 1002.97 1002.04 1000.40 997.91 996.92 996.87 996.90 996.70 997.16 997.87 998.10 998.35 998.75 998.78 999.11 999.49 999.83 1000.18 1000.54 1001.30 1002.19 1003.14 1004.00 1004.82 1006.05 1006.96 1008.30 1009.25 1010.14 1011.45 1012.55 1013.72
1007.86 1007.00 1007.26 1006.11 1006.06 1005.10 1004.81 1004.72 1004.30 1003.74 1002.33 1001.53 1001.43 1000.12 998.02 997.13 996.51 996.06 995.20 995.54 997.09 997.24 997.17 997.32 997.36 997.43 997.63 998.03 998.13 998.43 999.23 999.93 1000.99 1001.89 1002.43 1003.67 1004.99 1006.25 1007.46 1008.23 1009.20 1010.37 1011.71 1013.07
1007.53 1006.20 1005.30 1003.37 1004.45 1003.90 1003.19 1003.15 1001.67 1001.65 1001.45 1000.38 999.68 997.56 996.99 996.32 996.18 995.34 995.19 995.34 995.97 995.82 996.00 996.00 996.08 996.33 996.71 997.02 997.00 997.29 997.72 998.64 1000.07 1000.83 1001.78 1002.90 1004.13 1005.65 1006.66 1007.54 1008.80 1009.62 1011.04 1012.33
1006.97 1006.58 1005.63 1002.53 1003.50 1000.63 1000.01 1000.47 1000.86 1000.13 999.34 998.77 997.44 997.18 996.91 996.30 995.68 995.78 996.09 996.00 995.45 995.14 995.50 995.55 995.65 995.72 995.66 995.59 995.81 996.21 997.13 998.13 999.18 1000.09 1001.36 1002.23 1003.47 1004.98 1006.21 1007.29 1008.16 1009.18 1010.37 1011.31
1005.61 1005.16 1003.95 1003.26 1001.52 1000.10 999.88 999.46 999.17 999.11 998.67 999.33 999.51 998.51 998.10 997.49 997.10 996.67 997.75 998.09 997.48 996.49 995.73 995.73 995.43 994.99 994.84 995.11 995.54 996.22 997.06 997.83 998.79 999.40 1000.42 1001.66 1002.48 1003.99 1005.39 1006.48 1007.52 1008.66 1009.96 1011.11
1005.00 1004.25 1003.67 1003.00 1001.39 1000.18 999.94 999.66 999.20 999.35 999.93 1002.79 1002.86 1002.07 1001.69 1000.12 999.50 999.64 999.80 1000.00 999.38 998.14 997.36 996.81 996.42 995.63 995.40 995.15 995.63 996.87 997.12 997.37 997.91 998.52 999.36 1000.78 1001.98 1002.90 1004.08 1005.18 1006.55 1008.06 1009.23 1011.09
1005.45 1004.20 1003.18 1002.01 1000.75 1000.68 1002.21 1002.81 1000.53 1001.45 1004.60 1004.45 1004.42 1004.28 1004.17 1003.30 1003.11 1002.61 1001.63 1000.64 1000.29 998.98 998.31 997.33 997.29 997.12 996.93 996.94 997.02 997.04 997.52 997.30 997.87 998.71 999.68 1001.05 1002.00 1002.92 1004.18 1005.37 1006.70 1007.72 1008.56 1010.18
1007.78 1006.42 1004.87 1003.68 1002.93 1003.14 1004.71 1004.24 1006.78 1007.22 1006.02 1005.98 1005.22 1004.85 1004.41 1004.59 1004.03 1002.94 1001.51 1000.78 1000.09 998.76 997.80 997.61 997.89 997.27 996.61 997.13 997.64 997.74 998.07 998.35 998.81 999.30 1000.28 1001.40 1002.26 1002.93 1004.08 1005.22 1006.77 1007.57 1008.11 1009.47
1009.35 1008.82 1008.40 1008.32 1006.41 1005.06 1006.10 1006.38 1006.54 1007.15 1006.70 1006.36 1006.18 1005.91 1005.47 1004.40 1003.59 1002.62 1001.67 1000.99 1000.30 999.51 997.97 997.77 997.86 997.30 997.21 997.23 997.19 997.80 998.18 998.61 999.34 1000.13 1000.67 1001.56 1002.52 1003.65 1004.47 1005.07 1006.54 1007.26 1008.58 1008.70
1009.80 1009.05 1008.48 1008.32 1006.98 1006.58 1005.87 1005.79 1006.08 1006.10 1006.29 1006.40 1006.41 1005.97 1005.60 1004.83 1003.82 1003.11 1002.47 1001.43 1000.81 1000.11 998.27 997.82 997.49 997.38 997.16 996.44 996.91 997.14 997.56 998.12 998.61 999.86 1001.07 1001.82 1002.62 1003.71 1004.64 1005.40 1006.50 1006.76 1007.92 1008.00
1010.21 1009.52 1008.43 1007.49 1007.05 1006.73 1006.72 1006.67 1007.07 1007.05 1007.14 1007.10 1007.00 1006.56 1006.02 1005.69 1004.92 1004.39 1002.97 1002.44 1000.75 1000.16 998.69 997.50 997.74 996.69 996.66 996.51 995.31 996.11 997.05 998.06 998.04 998.51 998.57 999.84 1001.73 1002.43 1003.45 1004.23 1005.20 1004.84 1006.67 1007.02
1009.60 1008.98 1008.51 1007.26 1007.33 1007.62 1006.68 1007.00 1007.20 1007.63 1008.08 1008.22 1007.83 1007.36 1006.93 1006.61 1005.76 1004.77 1003.64 1002.66 1001.71 1000.99 999.40 997.93 997.03 996.70 995.42 995.80 994.79 994.89 995.80 997.28 998.76 998.40 999.17 1000.52 1000.85 1000.27 1001.43 1002.65 1004.33 1004.74 1005.06 1005.66
Wind_Speed
6 5 11 23 16 7 5 6 9 20 10 10 17 18 21 20 10 13 16 18 20 19 15 10 15 17 15 13 17 19 18 16 13 9 8 6 8 5 4 5 8 7 6 6
2 12 20 4 10 11 12 15 16 16 12 11 14 21 18 11 15 16 17 19 22 17 9 8 10 12 18 19 19 18 18 17 14 11 9 5 6 2 3 4 6 7 7 7
19 11 17 12 9 8 20 15 19 19 10 7 8 11 13 12 10 14 17 19 21 18 12 7 9 15 15 18 20 20 20 20 16 14 8 4 5 3 3 5 6 6 8 8
12 11 11 6 7 13 23 10 15 10 3 13 5 16 8 7 13 10 16 18 15 12 9 8 10 11 17 17 17 19 18 19 14 15 14 11 12 11 8 9 7 6 8 7
12 3 8 14 24 9 18 3 4 1 4 5 6 7 3 8 8 11 16 18 18 12 10 11 16 18 14 15 17 17 17 17 15 18 17 12 12 7 3 4 9 7 6 8
11 1 4 7 2 6 2 1 1 2 3 14 9 10 7 7 10 7 11 12 15 12 9 10 8 9 9 10 13 15 18 18 18 18 17 19 16 11 8 8 9 9 8 7
3 13 4 6 3 2 3 5 5 5 1 16 13 12 19 5 7 12 13 13 15 7 9 10 12 12 12 15 16 15 17 17 16 19 18 20 17 16 14 14 12 12 9 6
4 15 12 9 16 13 9 10 8 8 10 20 4 10 8 11 12 11 13 15 5 8 8 10 13 13 13 15 15 16 16 17 18 19 18 16 16 12 10 13 10 11 11 9
7 14 2 4 2 9 6 7 9 2 2 3 9 13 7 7 10 11 14 3 8 9 9 10 8 11 12 14 17 19 18 18 17 18 15 16 14 16 14 13 11 9 9 8
7 9 9 4 1 3 5 2 2 1 3 8 18 6 14 16 22 19 7 9 8 6 8 8 9 12 12 14 15 15 16 19 16 16 16 15 16 16 12 11 13 11 9 9
6 8 16 5 8 10 1 4 5 2 5 14 15 17 6 2 6 7 7 6 8 9 10 10 10 12 13 10 13 14 15 16 16 15 16 16 15 14 12 13 11 12 11 11
2 4 4 12 7 6 5 7 9 10 11 5 8 16 19 7 5 7 5 4 1 5 8 9 10 10 10 13 13 17 16 17 19 15 13 15 11 12 13 12 11 11 12 10
4 3 4 8 13 3 7 7 8 6 2 11 14 15 26 24 26 22 9 10 10 12 11 9 9 11 14 14 15 16 16 19 15 14 15 14 14 14 14 13 12 12 12 10
10 10 13 18 17 8 8 7 9 15 12 22 21 31 27 33 31 26 21 26 21 14 12 11 11 10 8 12 14 15 16 16 15 15 16 16 16 16 14 13 14 13 13 13
13 11 19 26 27 30 29 26 26 21 22 20 27 25 24 32 29 26 25 23 19 8 9 9 11 9 12 13 13 14 15 14 15 16 16 17 15 15 14 15 14 13 12 10
12 18 18 23 28 32 35 32 33 35 34 27 33 32 34 30 31 31 36 29 19 18 19 14 12 13 13 13 17 16 15 16 16 17 18 16 16 15 17 16 15 15 14 12
11 7 12 25 20 24 25 34 38 29 25 24 30 36 36 35 31 32 31 28 19 21 20 13 12 11 11 12 14 14 16 12 17 16 15 16 16 16 17 15 15 15 14 13
25 21 12 14 16 25 11 17 29 34 33 33 36 34 31 28 26 24 23 20 24 26 20 10 9 10 11 10 9 10 10 14 15 15 15 15 17 17 15 15 16 15 14 14
20 18 11 16 18 19 9 8 21 20 30 26 28 28 23 21 22 21 17 21 17 21 19 11 9 9 7 9 7 8 10 12 13 16 17 17 18 18 17 17 16 13 13 12
13 19 20 22 27 33 24 8 12 21 20 21 16 20 16 15 5 5 20 19 19 17 15 16 15 8 8 4 7 9 10 13 16 17 17 16 17 18 19 18 17 14 13 11
14 14 20 22 17 9 11 21 13 10 9 24 13 15 19 16 9 15 19 23 19 12 12 10 10 6 5 3 1 5 6 14 6 7 11 13 14 14 13 13 12 13 13 12
7 6 6 8 15 25 20 10 12 15 16 13 16 16 15 12 16 16 18 20 20 18 16 12 9 9 3 3 3 3 7 3 6 9 10 10 11 10 11 14 11 13 14 13
8 3 5 6 10 22 9 16 5 4 6 9 12 15 15 19 19 18 17 18 18 18 13 11 8 7 4 4 5 6 4 8 9 8 9 10 10 8 10 14 13 11 11 11
6 11 7 13 9 20 21 15 12 16 15 13 7 13 14 17 16 21 19 17 17 18 16 13 13 13 14 6 8 10 10 12 13 12 10 11 12 11 10 9 10 10 11 10
8 12 6 13 16 14 12 10 13 14 8 13 15 14 16 18 18 19 19 20 18 18 15 12 15 14 17 10 10 10 10 12 13 12 16 18 13 13 13 12 12 12 11 12
12 15 12 16 19 9 17 12 9 6 9 11 13 18 18 17 20 19 17 18 17 18 17 18 16 14 17 16 10 9 12 13 12 12 10 10 9 13 14 14 12 18 18 20
Wind_Direction
209 145 204 228 201 226 249 251 235 268 259 203 239 237 255 256 258 248 255 261 259 252 255 222 205 194 171 161 160 166 163 169 160 163 159 160 180 176 173 176 160 161 161 164
247 217 222 211 204 224 247 257 262 274 270 194 249 253 252 241 244 242 238 251 257 255 258 239 187 170 172 167 168 167 169 169 172 171 172 165 162 164 158 153 165 171 168 171
221 218 217 224 235 262 249 248 258 255 295 232 282 265 247 245 253 252 253 247 258 256 233 215 181 180 166 169 170 170 172 174 174 169 151 100 89 80 149 190 184 188 172 173
247 233 219 192 209 194 262 218 258 266 255 270 132 290 218 231 239 236 246 254 251 240 220 198 182 176 177 177 170 171 172 175 174 165 172 174 187 185 202 190 180 170 172 172
234 218 200 225 233 193 260 181 236 246 239 317 176 285 190 195 243 247 245 249 257 242 203 191 190 189 181 167 172 171 172 176 174 179 184 183 192 191 136 149 165 167 171 171
246 159 214 211 169 192 110 202 197 41 83 262 186 210 158 193 211 235 246 247 249 255 199 197 181 149 168 164 168 172 175 183 181 182 184 190 189 176 165 170 180 182 180 180
291 225 171 146 172 288 169 76 304 321 20 259 184 223 253 275 216 213 230 239 237 179 179 167 161 172 172 177 178 177 181 188 185 186 190 192 191 186 187 179 183 176 177 185
251 285 157 187 199 188 183 174 172 223 256 277 154 252 254 224 231 232 222 228 223 176 186 181 181 180 182 186 182 185 187 189 192 193 195 194 190 192 195 189 179 186 185 182
205 263 309 192 176 150 169 183 217 344 61 7 252 275 296 257 282 271 248 165 223 203 188 191 182 187 186 187 195 190 190 198 194 195 192 196 193 196 195 189 182 183 172 163
234 264 193 144 141 328 168 149 110 283 205 241 273 272 270 286 278 271 239 210 206 204 195 200 204 198 195 195 194 198 202 203 198 196 195 195 195 198 192 180 183 173 165 150
296 243 258 122 194 182 150 248 235 211 178 242 258 270 153 103 315 290 260 225 196 212 216 212 212 210 208 191 190 197 198 199 201 199 198 194 196 189 178 185 185 169 155 157
309 292 291 252 289 201 168 212 213 236 259 236 271 265 277 294 335 288 111 271 291 216 237 232 217 213 194 197 191 198 199 202 206 198 195 198 182 176 179 182 170 156 160 161
165 203 273 291 286 232 211 196 210 241 221 241 263 265 276 278 281 274 235 258 262 270 256 240 231 215 208 205 205 205 201 210 201 188 184 185 182 179 184 174 162 161 154 160
173 198 200 228 237 270 262 256 254 249 252 258 245 256 263 270 261 269 271 265 268 256 241 223 234 227 212 213 208 208 208 204 194 186 186 185 186 183 178 165 160 161 162 163
176 229 220 231 235 252 261 253 251 249 248 245 257 257 253 257 274 272 277 271 270 245 226 233 241 227 221 216 214 212 214 197 187 186 188 190 181 173 165 164 163 161 159 163
205 247 226 232 226 226 238 245 248 252 248 250 254 258 256 261 265 270 269 271 286 276 264 240 226 233 233 217 218 213 208 196 183 188 190 179 170 166 172 167 166 163 162 159
248 251 224 248 225 232 238 234 239 247 250 240 245 245 250 259 260 259 275 283 279 268 261 254 232 229 232 228 220 212 204 172 183 187 177 172 167 173 177 167 167 167 164 156
267 260 269 266 263 240 220 206 225 240 245 249 252 258 260 259 270 271 274 276 287 280 280 245 239 240 239 237 216 211 162 176 179 177 174 169 170 174 170 168 171 166 165 164
228 247 265 261 252 272 265 226 226 233 251 268 291 279 281 295 285 274 337 351 326 328 316 293 266 248 252 240 221 168 164 165 170 177 178 177 173 171 170 174 173 168 163 165
259 242 249 258 261 266 277 346 326 262 256 1 1 359 360 344 333 10 350 345 339 343 345 337 322 291 279 259 150 168 176 173 186 187 182 174 174 172 176 173 169 166 159 161
270 267 256 253 253 256 10 9 313 239 343 317 6 6 357 343 339 314 318 320 317 315 310 317 314 300 307 319 95 176 173 203 170 146 156 167 174 172 171 163 165 158 152 154
280 323 297 311 262 266 24 19 17 299 304 340 333 330 322 296 289 290 295 300 306 314 320 316 300 304 287 166 146 187 213 117 111 137 148 161 164 158 157 156 157 161 158 157
293 14 303 319 320 315 287 314 297 286 282 307 315 330 332 316 306 309 322 326 318 309 315 311 294 297 259 238 185 209 192 145 137 144 151 150 144 153 158 158 162 153 166 161
279 283 290 321 283 299 305 317 347 352 338 336 332 314 306 302 315 309 301 299 296 294 303 306 304 300 293 206 211 229 172 167 155 152 154 152 156 153 159 161 170 165 177 171
253 296 262 272 278 284 285 316 341 322 347 338 324 316 320 316 304 300 300 299 298 298 288 293 289 277 278 265 216 201 186 182 183 179 166 169 172 168 167 176 184 169 177 180
255 261 268 275 292 302 301 324 317 1 319 312 311 310 307 309 304 305 303 306 305 298 304 300 285 276 274 271 240 203 179 180 186 176 174 188 189 173 173 167 171 184 170 173